CZ-4B DEB, 56088

Orbit data source: Space-Track

CZ-4B DEB, 56088 is space debris in SSO originally from a launch on Wed, 24 Oct 2018 UTC launched from the Taiyaun Space Center, China (TSC). Debris objects in space refer to the collection of defunct objects orbiting the Earth. Examples of debris include non-operational satellites, rocket bodies, and fragments generated from explosions, collisions, or faulty payload assembly.

Loading next visibility...
Identifier
56088, 2018-081J
Orbit
SSO
Country
Flag of CNCN / PRC
Related business
Manufacturer
Unknown
Mission
Spacecraft
Bus & Motor
Unknown
Mass
Unknown
Launch date (UTC)
2018-10-24 (7 years ago)
Launch vehicle
Unknown
Launch site
Taiyaun Space Center, China (TSC)
Object type
Payload
Rocket body
Debris
Shape & HBR
Unknown shape, 0.1 m
Radar Cross Section
Small (<0.1 m²)

Expand to show TLE details & history
Last TLE update: 11 hours ago

TLE from 11 hours ago
0 CZ-4B DEB
1 56088U 18081J   26037.40677513  .00012071  00000-0  43489-2 0  9997
2 56088  98.7698 196.9648 0139695 257.7872 100.7634 14.28507925147051
Epoch: 2026-02-06T09:45Z
TLE epoch observation values (Epoch: 2026-02-06T09:45:45.371Z)
Latitude
-0.00003°
Longitude
-86.01934°
Altitude
819.715 km
Speed
7.433 km/s
True Right ascension
13h 07m 51s
True Declination
0° 00' 00"
Sunlit
Object was in full shadow at epoch
Visualization orbit readout
Latitude
Unknown
Longitude
Unknown
Altitude
Unknown
Speed
Unknown
Apparent Right ascension
Unknown
Apparent Declination
Unknown
Sunlit
N/A
Visualization observer readout
Local Sidereal Time
22:25:35
Azimuth
Unknown
Elevation
Unknown
Doppler factor
Unknown
Orbital elements
Apogee altitude
894.061 km
Perigee altitude
693.682 km
Semi-major axis
7,172.009 km
Eccentricity
0.01397
Inclination
98.7698°
RAAN
196.9648°
Arg. of periapsis
257.7872°
True anomaly
102.33072°
Mean anomaly
100.7634°
Eccentric anomaly
101.54759°
Mean motion
3.5734 °/min
Orbital period
100.74 mins
BSTAR
0.0043489
Loading maneuver chart data...
Computing Atmospheric mass density...
Loading historical data...
Loading historical data...
Loading historical data...
Loading historical data...
Loading historical data...
Loading historical data...
Loading historical data...

Documentation

Showing up to 5 results
|